CLYO2: Little River nr Cloudy 5ENE
Data processed at Thu 30Mar2023 04:20 GMT
All information presented herein is the property of the government of the United States of America and may be revised or deleted at any time without prior notice.
Dissemination of this information without the expressed written consent of the Public Affairs Office, Tulsa District U.S. Army Corps of Engineers is strictly prohibited.
These data are gathered electronically and, as presented, have not undergone any form of quality control. These data are not guaranteed to be valid or correct.
Go to home page.
Go to station list.
Downstream station:
Previous Day
Next Day
Current Day
SHEF ID: CLYO2 Little River nr Cloudy 5ENE
STATION TYPE:
PRECIP STAGE RIV-FLOW VOLTAGE BAT-LOAD
in ft cfs volt volt
Ccp-Rev Ccp-Rev Ccp-Rev Ccp-Rev Ccp-Rev
(US/Central)
03/29 00:00 0.00 6.06 1415 12.74 12.55
03/29 01:00 0.00 6.08 1439 12.73 12.53
03/29 02:00 0.00 6.07 1427 12.70 12.50
03/29 03:00 0.00 6.03 1380 12.69 12.48
03/29 04:00 0.00 6.00 1360 12.67 12.46
03/29 05:00 0.00 6.02 1373 12.64 12.44
03/29 06:00 0.00 6.01 1367 12.63 12.41
03/29 07:00 0.00 6.03 1380 12.60 12.40
03/29 08:00 0.00 6.00 1360 12.70 12.37
03/29 09:00 0.00 5.96 1334 13.72 12.48
03/29 10:00 0.00 5.98 1347 13.58 13.52
03/29 11:00 0.00 5.90 1294 13.76 13.35
03/29 12:00 0.00 5.96 1334 13.83 13.36
03/29 13:00 0.00 5.94 1321 13.89 13.36
03/29 14:00 0.00 5.92 1307 14.08 13.28
03/29 15:00 0.00 5.93 1314 13.59 13.13
03/29 16:00 0.00 5.92 1307 14.33 13.05
03/29 17:00 0.00 5.90 1294 13.73 13.00
03/29 18:00 0.00 5.91 1301 14.21 12.98
03/29 19:00 0.00 5.90 1294 13.16 12.98
03/29 20:00 0.00 5.88 1281 12.94 12.90
03/29 21:00 0.00 5.88 1281 12.86 12.71
03/29 22:00 0.00 5.89 1288 12.82 12.63
03/29 23:00 0.00 5.85 1261 12.79 12.60